Location: Unspecified
(38.6830°S, 0.0000°E)
Time: 13:48:16
(UTC+00:00)

Envisat - Pass Details

Date: 02 June 2019
Orbit: 764 x 766 km, 98.1° (Epoch: 26 June)

Event Time Altitude Azimuth Distance (km) Brightness Sun altitude
Exits shadow 18:52:15 24° 28° (NNE) 1,559 4.4 -23.9°
Drops below altitude 10° 18:54:28 10° 12° (NNE) 2,306 5.4 -24.4°
Sets 18:56:53 0° 5° (N) 3,224 6.3 -24.8°
